Torna al catalogo

GONETS D1 3

AttivoComunicazioniPO
NORAD 23789·PAYLOAD·🇷🇺 Russia

Lanciato Feb 19, 1996 da Plesetsk Cosmodrome

Loading…

Prossimi Passaggi (prossime 24 ore)

TLE

AggiornatoSource: Space-Track

Epoca: Sep 14, 2026, 10:22 UTC

1 23789U 96009C   26257.43216421  .00000005  00000-0 -31780-4 0  9997
2 23789  82.5732 262.8573 0004573 211.2051 148.8770 12.62687725408915

Traccia GONETS D1 3 in tempo reale con AllMySat

Download on the App Store